User: anonymous   Login
Location: Unspecified
(0.0000°N, 0.0000°E)
Time: 08:30:50
(UTC+01:00)
Language:

Meteor 1-31 Rocket - Orbit

View from above orbital plane
View from above orbital plane
View from above satellite
View from above satellite

Ground track
Ground track

The orbit data is extracted from the following two-line orbital elements,

1 12586U 81065B   15056.88187997  .00003128  00000-0  20827-3 0  9992
2 12586 097.4187 051.2460 0019604 208.7057 151.3094 15.07680160829463
Epoch (UTC): 25 February 2015 21:09:54
Eccentricity: 0.0019604
inclination: 97.4187°
perigee height: 530 km
apogee height: 557 km
right ascension of ascending node: 51.2460°
argument of perigee: 208.7057°
revolutions per day: 15.07680160
mean anomaly at epoch: 151.3094°
orbit number at epoch: 82946

The dashed part of the orbit path shows where the satellite is in the earth's shadow,  

DLR